This is the latest recevied weather packets stored in our database for station/object OH1KK. If no packets are shown the sender has not sent any weather packets the latest 10 day(s).
| Time | Temp. | Humidity | Pressure | Rain* | Wind** | Luminosity | Snow |
|---|---|---|---|---|---|---|---|
| 1777993469 | 8.89° C | 34% | 993.1 hPa | 0 mm | - | - | - |
| 1777992555 | 8.89° C | 37% | 993.3 hPa | 0 mm | - | - | - |
| 1777991700 | 8.89° C | 35% | 993.1 hPa | 0 mm | - | - | - |
| 1777990785 | 9.44° C | 35% | 993 hPa | 0 mm | - | - | - |
| 1777989870 | 8.89° C | 35% | 993 hPa | 0 mm | - | - | - |
| 1777986270 | 8.89° C | 38% | 992.9 hPa | 0 mm | - | - | - |
| 1777984441 | 7.78° C | 39% | 992.6 hPa | 0 mm | - | - | - |
| 1777983587 | 7.22° C | 40% | 992.5 hPa | 0 mm | - | - | - |
| 1777982671 | 7.78° C | 43% | 992.1 hPa | 0 mm | - | - | - |
| 1777981757 | 7.78° C | 44% | 992.1 hPa | 0 mm | - | - | - |
| 1777980842 | 7.78° C | 44% | 991.9 hPa | 0 mm | - | - | - |
| 1777979988 | 7.78° C | 44% | 991.8 hPa | 0 mm | - | - | - |
| 1777978158 | 6.11° C | 48% | 991.7 hPa | 0 mm | - | - | - |
| 1777977243 | 6.11° C | 51% | 991.6 hPa | 0 mm | - | - | - |
| 1777976388 | 6.11° C | 52% | 991.3 hPa | 0 mm | - | - | - |
| 1777975473 | 6.11° C | 54% | 991.1 hPa | 0 mm | - | - | - |
| 1777974559 | 5.56° C | 57% | 990.9 hPa | 0 mm | - | - | - |
| 1777972790 | 5.56° C | 58% | 990.7 hPa | 0 mm | - | - | - |
| 1777970960 | 5° C | 59% | 990.2 hPa | 0 mm | - | - | - |
| 1777970044 | 5° C | 62% | 989.9 hPa | 0 mm | - | - | - |
| 1777969190 | 5.56° C | 62% | 989.6 hPa | 0 mm | - | - | - |
| 1777968276 | 6.11° C | 61% | 989.6 hPa | 0 mm | - | - | - |
| 1777966445 | 5.56° C | 65% | 989.6 hPa | 0 mm | - | - | - |
| 1777965590 | 4.44° C | 69% | 989.3 hPa | 0 mm | - | - | - |
| 1777964677 | 4.44° C | 72% | 989.2 hPa | 0 mm | - | - | - |
* Rain latest hour (hover to see other rain measurements)
** Current wind speed in m/s (hover to see current wind gust speed)